Wind_Speed
73 75 76 80 81 84 83 85 78 70 57 51 53 54 50 39 32 27 26 31 29 35 39 37 39 44 50 53 56 61 66 72 77 86 93 98 102 103 103 101 101 99 97 95
75 73 79 79 81 81 82 78 71 63 50 54 55 50 31 20 21 20 22 24 29 29 31 34 31 31 36 43 47 48 53 63 71 77 87 94 99 105 105 104 104 103 101 99
76 76 77 80 82 81 79 71 59 53 51 44 36 34 19 15 22 22 23 22 21 27 29 29 33 36 33 36 39 40 42 47 55 66 77 87 96 103 108 106 106 106 105 103
75 76 80 80 81 76 75 61 53 45 40 40 27 31 16 13 13 15 15 17 20 23 31 31 36 36 40 43 43 42 42 43 45 48 61 79 88 100 105 108 108 108 109 107
75 76 78 79 77 71 65 54 44 41 35 29 9 21 14 15 15 14 15 18 23 28 31 35 35 37 38 40 41 38 36 35 38 46 55 65 80 90 102 109 110 110 110 110
74 77 79 77 72 65 55 46 40 28 25 21 16 24 19 21 22 14 17 25 28 31 32 32 34 34 35 35 37 40 41 40 39 45 47 57 68 82 95 106 112 112 112 112
71 77 77 70 70 62 47 36 28 25 25 16 16 19 14 11 13 19 21 21 22 27 32 32 34 35 36 37 38 41 44 44 46 45 51 51 55 67 84 97 110 114 114 113
73 76 71 65 60 60 38 24 24 29 25 27 18 16 16 18 19 21 21 20 23 25 27 30 31 31 33 37 39 41 44 45 47 48 43 56 56 59 68 84 100 114 116 116
75 76 68 63 58 46 34 14 17 23 22 27 22 18 19 17 20 21 19 23 25 25 28 29 29 32 38 39 42 41 39 44 48 48 50 45 60 60 63 71 86 107 117 118
73 74 67 61 55 40 23 15 17 19 24 29 16 12 24 18 15 16 17 20 21 22 24 26 30 33 38 40 39 40 36 35 37 49 53 51 47 61 64 67 75 94 112 120
69 69 67 55 49 43 18 18 20 20 20 25 23 7 26 24 18 17 20 21 24 26 28 29 33 36 40 36 37 38 42 41 36 37 44 51 58 54 59 72 68 77 95 113
67 68 66 56 45 32 19 8 11 16 19 17 24 13 22 21 21 25 24 25 26 27 29 33 34 36 33 35 39 36 38 41 41 45 50 52 56 60 65 64 75 73 81 96
66 62 62 53 38 29 13 11 13 18 19 14 23 19 20 21 20 24 25 24 25 28 30 31 32 26 30 36 39 39 34 28 34 36 47 50 52 62 60 58 73 80 79 86
65 54 48 41 31 18 6 10 16 22 14 12 13 18 16 18 19 20 21 23 28 31 32 29 26 30 37 39 36 47 41 34 27 32 33 37 49 41 56 59 63 79 81 81
60 47 40 29 17 9 4 5 10 12 13 15 14 17 17 18 17 19 20 23 28 32 31 32 30 29 34 36 43 46 33 28 27 32 21 24 36 46 51 61 59 72 79 79
55 43 32 23 10 7 8 5 7 10 10 16 21 15 17 18 20 20 21 23 26 30 30 34 31 33 36 38 40 43 44 31 28 27 25 17 19 28 40 50 56 67 69 76
53 43 28 18 12 12 13 12 10 10 12 15 17 16 14 13 16 16 19 23 24 27 27 30 30 32 38 43 39 42 39 30 27 19 29 20 9 15 27 43 50 56 57 70
52 42 30 17 15 16 15 18 12 11 14 13 16 16 15 15 16 16 17 20 23 23 24 23 27 29 35 40 37 36 45 36 36 28 24 16 5 16 24 31 35 39 51 61
49 40 31 23 18 18 18 18 15 12 18 15 16 15 17 15 16 17 16 18 20 21 21 22 25 28 26 32 37 34 39 44 39 27 24 20 8 16 23 28 30 37 45 46
45 38 31 26 22 20 17 20 20 15 17 17 14 15 15 15 12 16 15 17 19 20 19 19 22 24 25 23 29 39 40 40 44 47 24 29 25 18 20 27 32 36 34 31
37 35 31 30 31 25 23 19 18 15 16 19 19 17 17 15 15 14 15 15 16 18 18 18 19 23 21 26 24 29 36 43 42 47 44 26 21 32 40 44 40 44 51 52
42 36 27 29 30 26 22 20 18 19 19 20 18 16 16 17 14 14 14 15 15 16 17 16 19 22 25 25 23 25 29 35 39 42 41 45 27 23 13 34 40 41 39 42
37 37 30 27 22 22 25 22 20 20 19 18 18 19 16 15 14 12 14 14 14 15 15 11 14 17 23 24 23 22 24 28 32 36 38 37 40 38 18 27 24 19 24 40
34 33 30 29 15 20 20 24 23 21 21 20 18 15 13 13 13 13 13 14 14 14 15 13 9 12 14 18 21 24 24 25 27 29 31 32 34 37 40 43 32 28 30 44
29 35 32 26 20 18 18 17 19 20 21 20 16 13 8 7 11 13 14 15 14 14 15 15 14 8 8 10 14 18 22 23 24 24 24 24 26 26 32 35 41 49 53 54
25 29 35 27 22 18 18 16 18 17 18 19 18 17 9 7 9 11 12 13 16 16 15 15 17 15 10 5 6 8 14 16 19 20 21 20 19 23 18 18 22 38 41 50
Wind_Direction
319 319 315 317 316 317 316 315 315 314 305 294 291 292 298 293 290 280 270 274 270 273 275 272 272 269 266 260 253 250 247 245 240 234 230 228 226 226 224 222 220 221 222 224
319 320 316 319 318 318 317 317 317 313 307 297 302 300 303 313 301 281 262 263 269 268 273 275 279 280 266 258 259 257 256 250 246 240 233 229 225 223 224 222 220 219 221 222
320 318 320 319 318 319 319 319 314 311 311 312 310 307 314 323 294 292 289 278 265 258 273 275 274 273 274 266 262 260 254 252 253 249 239 232 226 222 222 222 220 219 218 220
320 321 322 322 321 323 320 319 315 310 310 321 337 327 10 339 325 298 276 259 260 273 270 274 276 274 272 272 272 270 267 261 255 250 246 236 229 223 221 221 221 219 218 218
323 322 323 324 323 325 324 318 312 309 310 312 343 319 337 337 339 318 286 261 260 265 277 281 277 276 277 275 272 269 263 261 259 255 247 242 234 226 221 220 220 220 218 217
321 325 325 326 326 327 321 315 311 306 312 302 313 311 323 322 311 304 309 277 274 280 285 283 285 286 286 282 277 272 269 267 267 261 252 246 242 232 223 219 218 219 219 218
324 326 330 329 326 324 319 315 313 311 314 312 330 315 316 322 312 300 290 290 285 283 285 288 286 284 282 281 280 278 272 266 269 274 250 247 243 238 231 221 218 217 218 218
328 328 331 330 326 324 323 317 304 305 313 312 312 315 311 303 294 289 295 301 303 293 291 290 288 289 291 288 288 285 278 269 265 260 260 242 241 239 235 230 221 217 215 217
330 333 334 330 330 326 318 316 307 300 301 298 309 313 322 333 303 293 306 314 310 303 300 296 294 298 299 291 292 297 295 277 264 256 250 249 240 238 237 233 227 218 214 215
332 332 334 334 328 326 294 298 295 302 305 305 319 347 347 321 293 306 314 306 302 307 306 305 305 303 300 298 292 288 291 297 281 252 245 243 242 238 232 234 231 222 216 212
330 332 334 335 330 326 287 277 276 290 292 295 313 339 334 327 329 332 331 327 331 330 321 316 313 304 309 309 307 298 288 284 283 265 249 244 241 236 234 230 231 227 221 216
331 332 334 338 330 328 304 248 278 296 291 290 303 5 334 329 335 336 340 339 338 331 324 317 314 312 322 315 312 317 297 286 278 265 255 253 242 243 240 233 227 227 223 219
332 335 334 339 338 333 296 231 242 275 287 303 302 320 328 331 335 335 335 335 340 341 330 330 325 330 323 328 333 333 319 296 278 276 266 257 253 243 238 234 226 223 222 219
333 335 335 339 338 347 347 260 260 280 300 304 327 321 329 331 335 333 334 337 344 344 346 341 339 343 337 340 330 330 334 316 317 291 271 250 241 239 228 232 228 220 219 218
333 335 335 342 342 2 354 246 258 285 302 313 311 320 328 331 339 341 340 341 343 345 347 347 360 348 345 342 336 337 342 317 320 344 270 277 240 238 232 230 228 213 217 215
333 336 335 338 343 343 313 289 296 308 314 313 315 319 325 332 342 340 342 342 339 346 348 349 1 357 9 357 348 351 353 354 344 353 348 319 263 238 226 219 215 208 213 210
335 334 333 323 311 308 317 316 318 321 320 317 325 320 314 329 330 339 344 341 341 346 351 353 1 1 18 8 2 359 13 4 13 357 4 343 283 227 203 199 204 206 208 203
333 332 327 320 300 300 290 294 289 294 295 310 321 332 319 326 335 342 345 347 345 348 354 356 5 10 23 16 11 5 7 9 9 21 8 1 81 142 157 177 193 199 193 194
331 329 321 312 298 291 285 286 293 278 279 295 303 317 327 320 334 336 338 342 345 347 356 1 14 12 26 24 21 25 27 23 26 24 26 14 120 140 145 155 158 168 180 194
327 326 314 304 295 280 280 280 283 293 284 296 298 305 320 318 326 322 331 336 344 349 4 11 32 25 35 35 35 39 39 39 38 44 62 67 89 145 148 157 162 174 182 182
325 317 306 285 285 290 282 284 289 295 295 288 300 303 301 318 328 322 326 331 337 341 358 16 27 36 51 42 33 36 42 47 50 51 52 77 72 91 115 119 141 145 143 153
326 315 309 287 289 286 281 278 289 288 292 294 297 300 289 292 320 330 320 324 331 336 347 10 20 34 45 47 35 24 38 51 54 64 65 63 83 90 96 116 131 134 142 151
321 311 314 303 295 277 277 272 282 286 287 283 284 298 295 272 289 324 329 317 319 326 330 350 0 21 47 45 46 41 41 49 57 64 71 79 84 85 103 127 135 152 156 147
314 304 314 314 311 265 271 272 278 288 285 287 280 295 296 267 272 292 310 331 313 314 319 324 333 2 32 50 50 46 54 51 52 57 65 77 88 99 104 108 128 161 170 156
303 301 304 317 294 268 276 278 275 291 284 280 276 277 287 286 282 284 289 299 312 312 304 307 305 311 354 33 56 63 59 48 48 53 66 68 77 95 108 109 124 131 150 154
293 298 298 311 297 267 275 272 274 291 291 275 271 271 262 272 291 300 307 310 300 291 302 293 291 288 288 324 18 46 75 73 62 48 46 65 74 83 86 110 115 130 137 143
Height
5584 5571 5555 5543 5526 5507 5486 5473 5457 5449 5439 5430 5424 5419 5420 5417 5416 5415 5417 5416 5417 5417 5416 5416 5416 5416 5416 5418 5422 5424 5427 5433 5440 5449 5458 5470 5486 5502 5517 5532 5547 5561 5574 5587
5571 5560 5542 5526 5512 5498 5477 5456 5444 5435 5430 5420 5413 5407 5408 5408 5405 5403 5402 5405 5406 5406 5406 5406 5405 5403 5401 5402 5405 5409 5411 5414 5418 5424 5434 5445 5457 5474 5490 5507 5523 5539 5554 5567
5554 5542 5529 5513 5496 5482 5467 5444 5429 5420 5414 5413 5403 5399 5401 5402 5396 5396 5396 5397 5397 5399 5399 5397 5396 5393 5392 5392 5393 5396 5397 5399 5401 5404 5410 5420 5432 5447 5464 5482 5498 5515 5530 5544
5541 5527 5510 5494 5475 5458 5446 5434 5422 5414 5408 5401 5401 5390 5396 5394 5393 5392 5391 5391 5393 5393 5391 5389 5387 5386 5384 5383 5382 5383 5384 5385 5386 5387 5390 5396 5407 5422 5440 5455 5472 5490 5506 5523
5525 5511 5499 5484 5462 5447 5432 5420 5413 5407 5404 5400 5400 5392 5392 5393 5393 5391 5390 5388 5386 5385 5384 5380 5377 5375 5374 5372 5371 5371 5371 5372 5372 5373 5374 5377 5385 5399 5412 5428 5447 5465 5483 5501
5512 5498 5478 5464 5448 5434 5421 5411 5406 5404 5400 5397 5396 5391 5390 5388 5388 5386 5384 5382 5381 5379 5376 5372 5368 5365 5363 5361 5360 5359 5359 5359 5359 5359 5360 5362 5368 5376 5386 5403 5420 5440 5460 5479
5505 5484 5469 5451 5435 5424 5413 5404 5396 5395 5394 5393 5391 5389 5386 5386 5383 5381 5378 5376 5375 5372 5367 5364 5359 5356 5352 5350 5348 5346 5345 5346 5344 5343 5344 5347 5351 5355 5365 5380 5395 5415 5435 5456
5489 5476 5462 5448 5427 5411 5403 5400 5395 5389 5389 5385 5388 5386 5384 5381 5377 5374 5373 5371 5368 5364 5359 5355 5351 5347 5343 5338 5334 5332 5329 5328 5326 5327 5327 5329 5334 5339 5346 5357 5372 5388 5409 5431
5472 5462 5450 5430 5416 5405 5399 5396 5393 5388 5387 5382 5381 5382 5382 5378 5373 5370 5369 5366 5361 5357 5352 5347 5342 5336 5331 5325 5320 5316 5312 5309 5308 5308 5311 5313 5316 5323 5331 5337 5348 5364 5384 5406
5457 5446 5438 5425 5410 5398 5391 5391 5389 5387 5382 5377 5376 5377 5376 5373 5369 5368 5366 5361 5357 5352 5345 5339 5333 5326 5319 5314 5308 5304 5299 5294 5290 5287 5291 5296 5298 5304 5312 5317 5328 5343 5360 5381
5448 5437 5430 5415 5400 5391 5388 5387 5386 5384 5382 5377 5372 5375 5372 5366 5364 5362 5359 5354 5349 5342 5337 5330 5323 5316 5310 5303 5298 5292 5286 5280 5275 5273 5274 5276 5280 5285 5290 5300 5311 5322 5339 5357
5438 5427 5416 5408 5394 5385 5381 5382 5382 5381 5379 5377 5373 5372 5369 5364 5361 5357 5353 5348 5343 5337 5330 5323 5315 5308 5302 5294 5286 5276 5268 5264 5259 5256 5256 5257 5259 5263 5271 5281 5292 5304 5317 5335
5430 5415 5403 5399 5391 5381 5377 5378 5377 5376 5375 5374 5371 5369 5366 5362 5360 5356 5351 5346 5339 5332 5325 5317 5310 5302 5295 5285 5273 5263 5256 5249 5242 5238 5235 5233 5235 5239 5250 5259 5270 5281 5297 5314
5422 5412 5401 5393 5383 5380 5378 5379 5376 5373 5371 5371 5371 5365 5363 5361 5358 5354 5350 5343 5335 5328 5322 5313 5305 5297 5289 5277 5265 5255 5243 5232 5222 5218 5213 5208 5214 5218 5229 5238 5245 5260 5277 5294
5418 5410 5400 5393 5386 5381 5379 5377 5374 5372 5370 5368 5367 5364 5361 5358 5355 5351 5347 5340 5333 5326 5320 5311 5302 5294 5284 5274 5263 5249 5234 5221 5211 5201 5197 5193 5194 5201 5208 5218 5229 5244 5259 5279
5411 5403 5396 5391 5386 5383 5379 5376 5373 5371 5369 5367 5364 5362 5359 5356 5353 5349 5345 5339 5331 5326 5318 5310 5302 5293 5285 5273 5260 5247 5230 5217 5205 5197 5190 5181 5179 5183 5190 5202 5215 5230 5248 5269
5404 5396 5392 5389 5386 5382 5379 5375 5372 5370 5368 5365 5363 5360 5358 5356 5352 5349 5344 5337 5331 5325 5320 5311 5303 5293 5285 5273 5260 5246 5232 5221 5209 5199 5190 5182 5178 5178 5183 5196 5212 5227 5241 5261
5399 5391 5387 5386 5383 5380 5376 5373 5371 5368 5365 5364 5361 5358 5355 5352 5350 5346 5343 5337 5331 5325 5321 5314 5305 5297 5289 5279 5266 5254 5237 5223 5213 5206 5194 5190 5186 5185 5191 5202 5216 5227 5240 5260
5392 5385 5381 5379 5378 5375 5372 5370 5368 5366 5363 5361 5359 5356 5353 5350 5349 5345 5341 5337 5332 5326 5322 5314 5308 5299 5293 5286 5276 5264 5251 5235 5224 5214 5204 5200 5197 5200 5204 5210 5220 5233 5249 5265
5386 5379 5376 5373 5371 5371 5368 5366 5364 5362 5360 5357 5355 5353 5350 5348 5347 5344 5341 5337 5332 5327 5322 5318 5313 5304 5298 5293 5285 5275 5264 5252 5238 5224 5218 5217 5212 5212 5218 5224 5231 5242 5255 5269
5382 5373 5369 5366 5364 5365 5363 5362 5360 5359 5359 5353 5351 5349 5347 5345 5344 5342 5339 5336 5333 5328 5324 5319 5315 5310 5303 5298 5291 5285 5278 5267 5257 5244 5237 5234 5231 5230 5229 5235 5241 5248 5259 5277
5376 5368 5364 5359 5358 5359 5357 5357 5356 5354 5352 5349 5347 5345 5343 5341 5341 5339 5337 5335 5332 5328 5326 5321 5318 5315 5309 5304 5298 5291 5286 5280 5274 5267 5260 5253 5248 5250 5249 5255 5262 5268 5278 5290
5369 5361 5358 5354 5354 5353 5351 5351 5350 5348 5346 5345 5343 5341 5339 5338 5337 5337 5335 5334 5331 5329 5326 5325 5320 5318 5315 5310 5306 5299 5294 5289 5286 5281 5278 5274 5272 5271 5267 5268 5274 5278 5287 5299
5361 5353 5350 5347 5349 5345 5345 5344 5344 5343 5341 5339 5338 5337 5335 5333 5333 5334 5333 5332 5329 5327 5325 5324 5322 5320 5318 5317 5313 5307 5302 5297 5293 5291 5289 5289 5288 5289 5290 5290 5290 5294 5302 5315
5354 5346 5343 5342 5340 5339 5339 5339 5338 5338 5336 5334 5333 5333 5332 5330 5330 5330 5330 5329 5327 5326 5324 5323 5321 5321 5320 5319 5317 5317 5313 5308 5302 5300 5299 5298 5297 5298 5301 5303 5305 5308 5313 5320
5346 5341 5335 5336 5334 5334 5334 5333 5333 5332 5330 5330 5329 5329 5328 5328 5327 5326 5326 5326 5324 5323 5322 5322 5320 5319 5320 5320 5318 5317 5319 5317 5314 5308 5306 5305 5305 5306 5307 5309 5311 5316 5320 5327